When you browse on this site, cookies collect data to enhance your experience and personalize the content and advertising you see.
Visit our Privacy Policy to learn more. By continuing to use the site, you agree to this use of cookies and data.
  • In Hungary
  • List of Countries
  • For 7 days
  • Water Temperature
  • Satellite Maps
  • Weather Map
  • News
  • Weather Widgets
  • user-avatar
    Login

    Hourly Weather Gyal

    Today, 16 January, Wednesday

    Time Temperature Precipitation Wind Pressure Humidity
    00:00 -1°C° 0 mm 6 mps 749 mmHg 74%
    01:00 +1°C° 0 mm 6 mps 749 mmHg 74%
    02:00 0°C° 0 mm 7 mps 748 mmHg 74%
    03:00 0°C° 0 mm 7 mps 748 mmHg 75%
    04:00 0°C° 0 mm 7 mps 748 mmHg 75%
    05:00 0°C° 0 mm 7 mps 748 mmHg 75%
    06:00 0°C° 0 mm 7 mps 748 mmHg 75%
    07:00 0°C° 0 mm 7 mps 748 mmHg 76%
    08:00 0°C° 0 mm 7 mps 749 mmHg 75%
    09:00 +2°C° 0 mm 7 mps 749 mmHg 74%
    10:00 +2°C° 0 mm 7 mps 750 mmHg 74%
    11:00 +3°C° 0 mm 6 mps 750 mmHg 73%
    12:00 +3°C° 0 mm 6 mps 750 mmHg 72%
    13:00 +3°C° 0 mm 6 mps 750 mmHg 72%
    14:00 +3°C° 0 mm 5 mps 750 mmHg 74%
    15:00 +3°C° 0 mm 4 mps 750 mmHg 76%
    16:00 +3°C° 0 mm 3 mps 750 mmHg 78%
    17:00 +2°C° 0 mm 3 mps 750 mmHg 78%
    18:00 +2°C° 0 mm 2 mps 750 mmHg 79%
    19:00 +2°C° 0 mm 2 mps 750 mmHg 79%
    20:00 +2°C° 0 mm 2 mps 750 mmHg 80%
    21:00 +2°C° 0 mm 2 mps 749 mmHg 80%
    22:00 +2°C° 0 mm 2 mps 749 mmHg 81%
    23:00 +2°C° 0 mm 2 mps 749 mmHg 84%

    Tomorrow, 17 January, Thursday

    Time Temperature Precipitation Wind Pressure Humidity
    00:00 +2°C° 0 mm 2 mps 749 mmHg 88%
    01:00 +1°C° 0 mm 2 mps 749 mmHg 91%
    02:00 +2°C° 0 mm 2 mps 749 mmHg 91%
    03:00 +1°C° 0 mm 3 mps 749 mmHg 92%
    04:00 +1°C° 0 mm 3 mps 748 mmHg 92%
    05:00 +1°C° 0 mm 3 mps 749 mmHg 92%
    06:00 +1°C° 0 mm 3 mps 749 mmHg 92%
    07:00 +1°C° 0 mm 3 mps 749 mmHg 91%
    08:00 +1°C° 0 mm 4 mps 749 mmHg 89%
    09:00 +3°C° 0 mm 4 mps 749 mmHg 87%
    10:00 +4°C° 0 mm 4 mps 749 mmHg 85%
    11:00 +5°C° 0 mm 4 mps 749 mmHg 81%
    12:00 +6°C° 0 mm 5 mps 749 mmHg 77%
    13:00 +8°C° 0 mm 5 mps 748 mmHg 73%
    14:00 +7°C° 0 mm 5 mps 748 mmHg 76%
    15:00 +7°C° 0 mm 4 mps 748 mmHg 78%
    16:00 +6°C° 0 mm 4 mps 748 mmHg 81%
    17:00 +6°C° 0.2 mm 5 mps 748 mmHg 81%
    18:00 +6°C° 0.2 mm 5 mps 747 mmHg 82%
    19:00 +6°C° 0.2 mm 5 mps 747 mmHg 83%
    20:00 +6°C° 0.1 mm 5 mps 748 mmHg 85%
    21:00 +5°C° 0.1 mm 5 mps 748 mmHg 86%
    22:00 +5°C° 0.1 mm 4 mps 748 mmHg 88%
    23:00 +5°C° 0.4 mm 4 mps 748 mmHg 87%

    Day after tomorrow, 18 January, Friday

    Time Temperature Precipitation Wind Pressure Humidity
    00:00 +4°C° 0.4 mm 3 mps 748 mmHg 86%
    01:00 +4°C° 0.4 mm 3 mps 748 mmHg 85%
    02:00 +4°C° 0.3 mm 3 mps 749 mmHg 83%
    03:00 +4°C° 0.3 mm 3 mps 749 mmHg 80%
    04:00 +3°C° 0.3 mm 3 mps 749 mmHg 78%
    05:00 +3°C° 0.1 mm 3 mps 750 mmHg 76%
    06:00 +3°C° 0.1 mm 4 mps 750 mmHg 75%
    07:00 +3°C° 0.1 mm 4 mps 751 mmHg 74%
    08:00 +3°C° 0 mm 4 mps 752 mmHg 70%
    09:00 +2°C° 0 mm 5 mps 752 mmHg 65%
    10:00 +2°C° 0 mm 5 mps 753 mmHg 61%
    11:00 +2°C° 0 mm 5 mps 753 mmHg 59%
    12:00 +2°C° 0 mm 5 mps 754 mmHg 57%
    13:00 +2°C° 0 mm 5 mps 754 mmHg 55%
    14:00 +1°C° 0 mm 4 mps 754 mmHg 57%
    15:00 +2°C° 0 mm 3 mps 754 mmHg 59%
    16:00 +3°C° 0 mm 2 mps 754 mmHg 60%
    17:00 +2°C° 0 mm 2 mps 755 mmHg 63%
    18:00 +2°C° 0 mm 2 mps 755 mmHg 65%
    19:00 +2°C° 0 mm 1 mps 755 mmHg 67%
    20:00 +2°C° 0 mm 1 mps 756 mmHg 68%
    21:00 +2°C° 0 mm 1 mps 756 mmHg 69%
    22:00 +2°C° 0 mm 1 mps 756 mmHg 70%
    23:00 +1°C° 0 mm 1 mps 756 mmHg 71%

    19 January, Saturday

    Time Temperature Precipitation Wind Pressure Humidity
    00:00 +1°C° 0 mm 1 mps 756 mmHg 72%
    01:00 +1°C° 0 mm 1 mps 756 mmHg 73%
    02:00 +1°C° 0 mm 1 mps 755 mmHg 74%
    03:00 -1°C° 0 mm 2 mps 755 mmHg 75%
    04:00 -1°C° 0 mm 2 mps 755 mmHg 76%
    05:00 -1°C° 0 mm 2 mps 755 mmHg 76%
    06:00 -1°C° 0 mm 2 mps 755 mmHg 76%
    07:00 -1°C° 0 mm 2 mps 755 mmHg 76%
    08:00 -1°C° 0 mm 2 mps 755 mmHg 75%
    09:00 -1°C° 0 mm 2 mps 755 mmHg 74%
    10:00 -1°C° 0 mm 2 mps 755 mmHg 73%
    11:00 +1°C° 0.1 mm 2 mps 755 mmHg 71%
    12:00 +1°C° 0.1 mm 2 mps 754 mmHg 70%
    13:00 +1°C° 0.1 mm 2 mps 754 mmHg 68%
    14:00 +1°C° 0 mm 2 mps 754 mmHg 69%
    15:00 +1°C° 0 mm 2 mps 753 mmHg 70%
    16:00 +1°C° 0 mm 2 mps 753 mmHg 71%
    17:00 -1°C° 0.1 mm 2 mps 753 mmHg 74%
    18:00 -1°C° 0.1 mm 2 mps 753 mmHg 78%
    19:00 -1°C° 0.1 mm 3 mps 753 mmHg 81%
    20:00 -1°C° 0.2 mm 3 mps 753 mmHg 83%
    21:00 -2°C° 0.2 mm 3 mps 753 mmHg 84%
    22:00 -2°C° 0.2 mm 3 mps 753 mmHg 86%
    23:00 -2°C° 0.1 mm 2 mps 753 mmHg 87%

    20 January, Sunday

    Time Temperature Precipitation Wind Pressure Humidity
    00:00 -2°C° 0.1 mm 2 mps 752 mmHg 88%
    01:00 -2°C° 0.1 mm 2 mps 752 mmHg 89%
    02:00 -2°C° 0.1 mm 2 mps 752 mmHg 89%
    03:00 -2°C° 0.1 mm 2 mps 752 mmHg 90%
    04:00 -2°C° 0.1 mm 2 mps 752 mmHg 90%
    05:00 -2°C° 0 mm 2 mps 752 mmHg 90%
    06:00 -2°C° 0 mm 2 mps 752 mmHg 89%
    07:00 0°C° 0 mm 1 mps 752 mmHg 89%
    08:00 -2°C° 0 mm 2 mps 753 mmHg 85%
    09:00 -1°C° 0 mm 2 mps 753 mmHg 80%
    10:00 -1°C° 0 mm 2 mps 753 mmHg 76%
    11:00 +1°C° 0 mm 2 mps 753 mmHg 72%
    12:00 +2°C° 0 mm 2 mps 753 mmHg 67%
    13:00 +1°C° 0 mm 3 mps 753 mmHg 63%
    14:00 +2°C° 0 mm 2 mps 754 mmHg 65%
    15:00 +1°C° 0 mm 2 mps 754 mmHg 67%
    16:00 +1°C° 0 mm 2 mps 754 mmHg 69%
    17:00 -1°C° 0 mm 2 mps 755 mmHg 69%
    18:00 +1°C° 0 mm 1 mps 755 mmHg 70%
    19:00 0°C° 0 mm 1 mps 756 mmHg 70%
    20:00 0°C° 0 mm 1 mps 757 mmHg 69%
    21:00 0°C° 0 mm 1 mps 757 mmHg 68%
    22:00 0°C° 0 mm 1 mps 758 mmHg 68%
    23:00 0°C° 0 mm 1 mps 758 mmHg 68%

    21 January, Monday

    Time Temperature Precipitation Wind Pressure Humidity
    00:00 0°C° 0 mm 1 mps 758 mmHg 69%
    01:00 -1°C° 0 mm 0 mps 759 mmHg 70%
    02:00 -2°C° 0 mm 0 mps 759 mmHg 71%
    03:00 -2°C° 0 mm 0 mps 759 mmHg 72%
    04:00 -2°C° 0 mm 0 mps 760 mmHg 73%
    05:00 -2°C° 0 mm 0 mps 760 mmHg 73%
    06:00 -2°C° 0 mm 0 mps 760 mmHg 73%
    07:00 -2°C° 0 mm 0 mps 761 mmHg 73%
    08:00 -2°C° 0 mm 0 mps 761 mmHg 69%
    09:00 -1°C° 0 mm 0 mps 762 mmHg 65%
    10:00 +1°C° 0 mm 1 mps 762 mmHg 61%
    11:00 +1°C° 0 mm 1 mps 762 mmHg 57%
    12:00 -1°C° 0 mm 2 mps 762 mmHg 54%
    13:00 +1°C° 0 mm 2 mps 762 mmHg 51%
    14:00 -1°C° 0 mm 2 mps 762 mmHg 53%
    15:00 -1°C° 0 mm 2 mps 761 mmHg 56%
    16:00 -2°C° 0 mm 2 mps 761 mmHg 58%
    17:00 -2°C° 0 mm 2 mps 761 mmHg 60%
    18:00 -3°C° 0 mm 2 mps 761 mmHg 62%
    19:00 -4°C° 0 mm 3 mps 761 mmHg 64%
    20:00 -5°C° 0 mm 3 mps 761 mmHg 66%
    21:00 -5°C° 0 mm 3 mps 761 mmHg 67%
    22:00 -5°C° 0 mm 3 mps 761 mmHg 68%
    23:00 -5°C° 0 mm 4 mps 760 mmHg 70%
    Show more